Theta_e
303 305 305 306 309 314 318 324 325 323 323 323 322 321 322 322 324 325 326 328 330 332 327 323 317 313 309 304 301 298 294 293 293 290 289 288 287 286 286 286 285 286 287
301 303 304 304 307 310 315 320 323 322 322 322 322 321 320 318 320 319 320 322 323 326 324 320 315 313 309 305 299 296 293 292 291 290 289 284 283 285 286 285 286 284 285
300 301 303 304 304 306 310 315 319 321 320 320 317 312 311 310 310 312 315 317 318 322 321 318 316 313 310 304 297 295 294 291 292 292 293 285 283 281 283 284 284 284 283
301 302 302 303 304 306 308 310 312 313 315 315 313 312 311 309 310 310 309 312 312 317 319 317 315 313 310 305 298 297 297 294 291 292 295 294 286 282 278 282 283 284 284
301 301 302 303 304 304 304 306 308 308 309 311 311 310 308 308 307 306 305 306 308 312 314 314 313 311 309 305 300 297 297 295 294 294 294 293 290 287 281 277 279 281 283
300 301 301 303 303 304 305 304 305 306 308 309 310 309 309 306 304 305 306 306 305 306 308 310 311 310 309 306 301 299 298 297 297 296 296 293 291 286 283 279 278 279 281
299 300 300 299 299 301 303 304 304 303 305 306 308 309 308 306 305 306 305 304 302 301 303 305 306 307 308 306 302 299 298 297 297 297 296 295 292 289 285 281 279 278 279
299 299 300 301 300 300 301 302 302 302 303 304 306 307 308 306 307 307 306 305 303 304 303 303 304 304 305 304 302 300 299 299 298 297 295 294 291 288 285 282 280 277 277
299 299 300 301 301 299 300 301 301 302 302 303 304 305 306 306 307 306 305 305 303 302 299 300 300 302 303 303 302 300 298 299 298 298 294 289 287 286 284 283 282 279 276
299 300 300 300 299 299 300 301 301 301 301 302 303 304 304 304 305 305 303 302 301 301 298 298 298 298 299 300 301 299 298 297 295 292 288 287 285 285 285 283 282 282 281
297 298 299 298 298 299 299 299 300 300 301 301 302 303 302 303 304 304 302 301 300 298 297 296 296 294 294 296 298 296 294 294 291 289 287 285 284 284 283 281 281 281 282
298 297 298 297 297 297 298 298 299 300 300 301 301 301 301 302 301 301 301 299 298 293 293 291 292 291 292 292 294 292 291 290 288 287 285 284 284 282 282 281 280 281 281
298 298 297 297 297 297 297 298 298 299 300 300 300 300 299 300 300 299 299 297 293 290 288 287 288 288 289 289 291 291 289 290 288 287 285 283 282 281 281 281 280 280 280
298 298 298 298 298 298 298 298 298 299 299 299 299 298 298 299 299 298 296 293 289 286 285 286 287 287 286 287 286 287 287 287 286 285 284 283 282 281 281 280 280 280 279
298 298 298 299 299 298 297 297 297 298 298 298 298 299 298 298 297 294 292 288 287 285 285 284 284 285 285 284 285 285 285 284 283 282 282 282 282 284 284 281 280 280 279
300 300 299 299 299 299 298 298 297 296 297 298 298 297 293 292 291 290 289 287 285 284 283 283 283 283 283 287 288 286 284 283 283 281 281 282 283 285 285 285 284 282 280
301 300 300 300 299 299 299 297 296 295 293 292 290 288 289 289 288 288 286 285 284 282 282 282 282 282 282 287 289 287 283 283 282 281 281 282 283 283 282 285 285 284 285
299 298 296 296 296 295 295 294 291 290 289 289 287 285 287 287 285 284 284 283 282 282 281 281 281 282 282 287 288 287 282 282 281 281 281 282 281 282 281 282 281 281 282
295 294 293 293 292 292 289 286 286 287 287 288 287 285 285 284 284 283 282 281 281 280 283 283 281 282 281 287 288 285 282 281 281 281 282 283 282 284 284 281 280 280 281
292 290 290 289 287 285 284 284 284 284 285 286 286 286 283 282 282 282 281 280 280 283 282 282 282 282 281 286 288 285 282 280 280 281 282 283 284 285 285 281 280 278 278
289 288 286 285 283 283 283 283 282 281 283 282 282 281 281 280 280 279 279 280 282 281 281 280 281 281 282 285 287 286 282 281 280 280 281 284 287 287 288 285 280 280 281
286 284 282 282 281 282 281 281 280 281 279 279 279 278 277 279 280 282 282 281 281 280 279 279 279 280 282 285 287 286 285 284 280 280 282 283 288 288 288 287 285 286 286
284 282 279 279 280 279 278 279 280 280 279 279 276 275 276 277 278 278 280 280 280 279 278 278 277 278 279 282 287 287 286 286 281 282 282 284 286 287 288 288 287 285 284
279 278 277 276 275 276 279 277 278 278 279 279 279 277 277 277 278 279 278 278 279 279 278 278 278 278 278 279 283 284 284 284 284 284 284 285 285 286 286 283 286 284 283
278 276 275 276 276 276 277 279 278 278 278 279 280 281 281 281 280 280 278 277 277 279 279 280 280 278 277 279 283 284 284 284 284 284 284 283 282 282 282 279 280 278 276
276 275 274 273 273 273 272 273 278 276 275 278 280 281 281 279 276 277 281 285 284 285 285 285 283 282 283 284 284 286 286 287 287 282 280 281 281 280 278 277 276 275 274
Wind_Speed
10 10 12 12 11 10 10 14 13 13 10 8 8 6 8 4 3 4 4 6 7 13 13 9 12 11 11 11 11 9 11 7 9 7 5 4 4 4 4 4 4 4 4
10 11 11 11 13 14 11 11 14 13 13 10 9 7 6 4 4 4 5 5 5 8 11 13 12 14 10 12 12 13 9 3 8 5 4 4 2 1 3 4 4 5 4
10 8 10 13 11 12 12 12 14 16 15 12 6 3 2 2 3 5 6 6 6 9 12 13 13 13 12 12 15 15 15 10 10 11 6 4 5 4 2 4 4 6 4
9 9 9 8 11 15 12 10 10 9 11 12 10 13 11 10 7 5 4 7 7 9 12 14 14 15 11 13 13 13 12 8 14 6 3 3 7 5 3 3 4 5 6
8 6 9 9 8 8 9 9 9 9 10 13 12 10 9 6 4 5 7 8 8 10 10 13 14 15 11 13 14 16 12 10 10 9 7 3 3 5 5 4 4 2 4
5 6 6 5 3 7 8 9 10 9 11 12 13 13 13 8 6 7 8 7 6 7 9 11 12 13 13 15 14 14 16 13 10 7 8 7 6 5 5 4 3 5 4
1 2 5 3 3 5 6 6 8 8 8 9 9 9 7 8 7 7 8 9 7 6 10 11 11 10 13 13 13 13 13 11 11 13 10 7 5 5 4 5 4 5 2
5 6 6 7 7 6 7 7 6 6 8 8 8 7 8 5 7 7 6 8 9 9 9 10 9 11 11 11 12 11 12 11 10 12 8 7 6 3 5 6 8 3 2
6 6 7 4 5 6 6 6 7 7 7 8 7 8 7 9 8 8 7 6 8 7 11 13 11 10 11 12 13 10 12 13 12 11 11 5 3 4 4 5 6 8 5
9 8 3 3 4 4 4 5 6 7 6 6 7 7 7 7 7 6 7 7 7 8 10 11 12 11 11 11 12 10 12 12 8 6 8 5 3 5 5 5 4 4 5
4 5 4 5 5 3 2 4 4 6 7 6 6 7 7 7 7 7 7 8 8 8 10 11 12 12 11 10 11 10 10 13 10 8 11 9 7 6 6 5 4 4 4
5 3 2 4 5 5 4 6 6 7 7 7 7 7 7 7 7 7 7 7 7 8 11 10 11 11 11 11 11 11 12 14 14 13 12 12 8 8 7 6 6 5 4
6 3 3 5 7 7 7 7 7 7 7 7 7 7 8 8 8 8 7 7 7 7 7 8 10 10 11 11 11 12 11 12 14 14 15 15 13 10 7 6 6 5 3
7 7 6 8 8 8 8 8 8 8 8 8 8 9 9 9 8 7 7 7 7 8 7 7 8 9 10 10 9 9 9 9 10 11 12 14 15 14 11 7 7 6 5
9 9 8 6 7 7 7 7 7 8 8 8 9 13 10 9 8 8 8 8 8 7 7 7 7 7 9 8 10 11 11 10 9 8 8 8 8 14 13 9 8 8 5
10 9 8 7 6 8 8 8 8 8 8 11 12 8 7 6 7 7 7 8 8 7 7 8 9 10 7 15 19 13 11 12 12 11 9 9 10 13 16 14 15 11 8
15 9 8 8 5 4 6 6 6 5 6 8 7 6 6 6 7 6 7 8 8 7 9 8 8 9 9 19 21 19 10 11 12 12 11 10 7 10 9 14 13 10 11
9 8 7 7 6 5 5 6 7 7 7 7 5 4 5 6 5 6 7 5 5 9 7 8 7 8 8 19 20 19 10 11 12 12 13 13 13 11 11 9 7 5 5
6 5 6 5 5 6 6 6 6 6 6 7 5 5 4 5 6 7 6 3 5 3 5 5 7 8 7 20 22 19 11 11 11 9 11 12 11 17 18 10 8 6 7
4 7 7 7 7 6 6 6 7 4 5 5 6 5 3 4 5 4 6 3 3 4 4 4 5 6 6 18 20 16 8 10 8 9 10 16 14 21 20 9 9 8 8
7 6 7 7 5 7 7 4 4 4 5 4 1 1 2 3 4 4 3 4 5 5 4 5 4 7 8 12 21 21 7 8 9 9 9 9 19 19 19 15 9 9 6
7 7 6 6 6 6 5 5 4 3 2 4 4 4 4 3 3 6 4 6 6 6 5 5 3 2 6 13 20 20 14 13 8 8 7 8 18 15 15 14 15 16 11
6 4 4 6 5 6 5 3 3 3 3 5 4 4 4 3 4 6 6 5 5 5 4 4 4 1 2 2 12 17 14 15 7 5 7 11 12 14 12 17 14 11 5
3 2 3 3 3 4 5 3 3 1 2 7 5 4 5 4 4 3 3 5 5 5 5 4 4 4 3 1 3 5 8 13 8 10 7 9 11 13 8 6 8 4 4
3 3 2 2 3 3 4 5 4 1 1 4 5 5 4 5 4 2 2 3 2 5 5 4 5 6 5 4 7 6 4 5 7 7 4 4 3 5 5 3 4 3 3
3 3 4 2 3 3 3 6 7 1 1 3 4 3 5 4 2 4 5 7 8 8 7 9 7 4 8 15 15 12 12 11 13 3 3 4 4 6 5 4 3 2 4
Wind_Direction
231 211 196 190 189 191 196 190 182 180 178 190 192 191 196 188 173 164 165 184 170 183 171 162 159 162 168 166 159 143 147 146 137 117 86 65 96 116 135 131 124 121 120
229 217 199 183 185 194 194 191 191 180 188 194 196 197 185 193 175 168 178 198 181 169 171 167 170 171 164 159 161 153 147 128 177 131 123 138 323 249 178 149 149 152 146
246 240 202 188 177 185 191 197 197 191 190 190 173 159 131 121 158 184 196 197 194 192 177 171 175 172 172 172 172 168 167 168 197 183 144 147 200 135 201 181 172 166 163
242 228 226 192 181 196 186 185 191 188 187 185 187 193 196 195 205 184 168 183 204 203 186 179 174 176 177 177 179 176 180 167 186 191 234 105 137 160 159 233 198 180 175
235 250 216 196 197 178 179 178 176 185 184 191 194 192 201 197 156 160 171 183 196 212 193 182 178 178 179 179 183 174 188 180 197 189 148 134 199 136 142 174 196 206 184
49 18 48 31 172 158 163 175 182 194 190 191 197 195 200 181 183 175 180 185 196 205 201 187 183 181 182 179 184 188 191 184 205 191 182 167 171 182 151 130 125 171 210
81 242 200 225 252 175 177 175 183 197 188 190 196 204 199 189 202 192 180 168 183 200 203 188 183 185 184 182 177 178 192 186 190 191 179 195 204 144 135 113 145 151 172
242 235 247 201 201 201 173 173 186 198 195 189 193 193 197 192 206 201 181 193 195 206 193 195 192 190 181 181 183 187 188 186 197 190 193 192 195 171 149 145 142 115 143
343 276 257 242 174 169 191 188 194 205 209 194 189 201 199 200 213 200 184 186 183 187 184 190 189 190 186 184 184 183 188 188 189 197 192 163 177 164 140 144 152 142 155
352 341 318 65 74 144 185 188 198 201 219 210 197 197 201 209 210 204 199 186 176 174 179 189 187 188 193 185 184 187 185 183 188 158 153 145 140 165 149 156 144 132 140
317 328 81 79 82 69 156 204 212 203 205 221 223 202 205 215 214 208 199 188 175 176 182 182 184 186 184 185 184 181 174 177 169 156 159 162 157 172 155 147 142 136 133
336 23 82 146 157 190 222 218 217 216 208 202 219 218 214 215 214 213 205 187 184 172 174 171 178 179 182 183 185 182 175 172 170 171 164 162 162 167 174 154 141 140 132
242 224 224 225 216 208 208 209 209 220 218 203 205 215 221 215 217 205 195 186 174 171 169 164 179 178 182 181 192 193 185 180 179 174 174 171 164 168 164 150 140 135 119
236 213 231 228 226 216 208 206 216 211 210 210 213 216 217 217 204 197 190 172 167 174 179 182 182 181 180 188 175 172 169 172 178 176 178 173 170 165 155 145 140 132 130
312 302 290 254 247 236 230 222 219 208 197 205 215 226 214 208 197 193 186 169 172 185 184 172 178 174 179 182 174 176 172 165 160 152 153 161 150 158 157 151 154 145 139
294 289 290 289 259 253 239 227 227 222 198 211 223 227 218 207 204 190 178 166 169 174 170 182 179 180 186 187 188 175 173 171 163 157 147 135 136 149 154 153 157 159 153
294 278 283 290 313 343 308 289 284 273 229 227 231 215 202 203 203 180 165 169 174 165 184 182 177 187 181 185 188 176 165 167 169 162 149 141 153 145 151 156 161 168 181
348 6 8 352 355 356 5 355 336 313 283 247 229 205 203 198 169 167 180 165 164 180 181 186 183 180 183 187 185 176 163 159 156 159 157 159 162 159 154 145 145 160 190
333 334 340 325 328 347 353 334 315 299 292 278 254 225 202 185 171 179 169 155 145 162 190 183 169 176 176 190 184 171 162 156 154 145 153 159 158 166 165 154 165 180 218
348 338 341 330 343 347 341 329 312 299 279 273 264 240 190 179 184 167 160 142 138 159 149 156 167 155 162 185 186 174 164 147 135 148 160 166 169 173 176 166 164 189 216
335 350 336 315 333 337 331 341 323 327 314 315 340 121 134 148 140 123 103 114 117 122 128 133 139 152 162 181 193 184 170 158 161 167 170 181 180 180 186 182 175 195 189
330 345 321 319 342 350 319 343 335 315 21 48 55 60 74 82 102 117 111 113 125 123 121 119 111 151 168 180 191 183 182 177 169 168 169 178 184 180 193 204 207 219 221
310 313 307 323 349 352 334 327 329 309 81 85 83 74 50 63 108 115 118 114 112 119 127 135 129 119 25 187 183 178 175 170 153 142 171 173 186 196 214 221 225 226 218
269 258 308 316 330 336 334 331 315 346 84 105 96 84 88 72 45 76 114 127 129 127 132 130 126 136 153 132 168 188 174 168 145 163 175 174 181 197 196 209 230 218 196
332 336 350 327 328 344 350 340 338 36 90 115 115 113 106 112 105 69 110 111 104 135 146 151 148 154 169 173 160 154 155 151 150 134 148 165 179 195 210 189 185 151 143
321 327 331 335 323 6 8 350 343 32 142 109 122 121 127 111 111 119 114 101 114 123 135 147 133 153 174 172 176 165 165 155 154 130 159 178 196 210 191 177 146 119 150